Weather History for Truckee-Tahoe, CA

Change the Weather History Date:

Tuesday, February 18, 2014

  Actual Average Record
Temperature  
Mean Temperature 36 °F -  
Max Temperature 53 °F 43 °F 61 °F (1950)
Min Temperature 19 °F 17 °F -5 °F (1956)
Degree Days  
Heating Degree Days 29    
Moisture  
Dew Point 17 °F    
Average Humidity 58    
Maximum Humidity 86    
Minimum Humidity 23    
Precipitation  
Precipitation 0.00 in - - ()
Sea Level Pressure  
Sea Level Pressure 30.14 in    
Wind  
Wind Speed 2 mph (SW)    
Max Wind Speed 21 mph    
Max Gust Speed 29 mph    
Visibility 10 miles    
Events      
Averages and records for this station are not official NWS values.
T = Trace of Precipitation, MM = Missing Value Source: NWS Daily Summary

Daily Weather History Graph

Daily Weather History Graph

Search for Another Location

Airport:

Trip Planner

Search our weather history database for the weather conditions in past years. The results will help you decide how hot, cold, wet, or windy it might be!

Date:

Astronomy

Feb. 18, 2014 Rise Set
Actual Time 6:48 AM PST 5:41 PM PST
Civil Twilight 6:21 AM PST 6:08 PM PST
Nautical Twilight 5:49 AM PST 6:39 PM PST
Astronomical Twilight 5:18 AM PST 7:10 PM PST
Moon 9:37 PM PST 8:24 AM PST
Length of Visible Light 11h 47m
Length of Day
10h 52m
Waning Gibbous, 86% of the Moon is Illuminated
Feb 18
Waning Gibbous
Feb 22
Last Quarter
Mar 1
New
Mar 8
First Quarter
Mar 16
Full

Hourly Weather History & Observations

Time (PST) Temp. Windchill Dew Point Humidity Pressure Visibility Wind Dir Wind Speed Gust Speed Precip Events Conditions
12:15 AM 23.0 °F - 19.4 °F 86% 30.18 in 10.0 mi Calm Calm - N/A   Clear
12:35 AM 24.8 °F - 17.6 °F 74% 30.19 in 10.0 mi Calm Calm - N/A   Clear
12:55 AM 23.0 °F - 17.6 °F 80% 30.19 in 10.0 mi Calm Calm - N/A   Clear
1:15 AM 23.0 °F - 17.6 °F 80% 30.19 in 10.0 mi Calm Calm - N/A   Clear
1:35 AM 23.0 °F - 17.6 °F 80% 30.19 in 10.0 mi Calm Calm - N/A   Clear
1:55 AM 24.8 °F - 17.6 °F 74% 30.20 in 10.0 mi Calm Calm - N/A   Clear
2:15 AM 21.2 °F - 15.8 °F 80% 30.19 in 10.0 mi Calm Calm - N/A   Clear
2:35 AM 21.2 °F - 14.0 °F 74% 30.18 in 10.0 mi Calm Calm - N/A   Clear
2:55 AM 23.0 °F - 15.8 °F 74% 30.17 in 10.0 mi Calm Calm - N/A   Clear
3:15 AM 23.0 °F - 15.8 °F 74% 30.17 in 10.0 mi Calm Calm - N/A   Clear
3:35 AM 19.4 °F - 15.8 °F 86% 30.17 in 10.0 mi Calm Calm - N/A   Clear
3:55 AM 19.4 °F - 14.0 °F 80% 30.17 in 10.0 mi Calm Calm - N/A   Clear
4:15 AM 19.4 °F - 14.0 °F 80% 30.18 in 10.0 mi Calm Calm - N/A   Clear
4:35 AM 21.2 °F - 15.8 °F 80% 30.19 in 10.0 mi Calm Calm - N/A   Clear
4:55 AM 21.2 °F - 14.0 °F 74% 30.19 in 10.0 mi Calm Calm - N/A   Clear
5:15 AM 21.2 °F - 15.8 °F 80% 30.20 in 10.0 mi Calm Calm - N/A   Clear
5:35 AM 19.4 °F - 15.8 °F 86% 30.19 in 10.0 mi Calm Calm - N/A   Clear
6:55 AM 21.2 °F - 17.6 °F 86% 30.20 in 10.0 mi Calm Calm - N/A   Scattered Clouds
7:50 AM 24.8 °F - 17.6 °F 74% 30.21 in 10.0 mi Calm Calm - N/A   Mostly Cloudy
8:50 AM 26.6 °F - 19.4 °F 74% 30.24 in 10.0 mi Calm Calm - N/A   Mostly Cloudy
9:50 AM 32.0 °F - 19.4 °F 60% 30.23 in 10.0 mi Calm Calm - N/A   Mostly Cloudy
10:50 AM 37.4 °F - 21.2 °F 52% 30.20 in 10.0 mi Calm Calm - N/A   Mostly Cloudy
11:45 AM 41.0 °F - 21.2 °F 45% 30.19 in 10.0 mi Calm Calm - N/A   Overcast
12:50 PM 48.2 °F - 21.2 °F 34% 30.14 in 10.0 mi SSE 4.6 mph - N/A   Mostly Cloudy
1:50 PM 53.6 °F - 21.2 °F 28% 30.12 in 10.0 mi SSW 10.4 mph - N/A   Mostly Cloudy
2:45 PM 53.6 °F - 21.2 °F 28% 30.11 in 10.0 mi WSW 10.4 mph 18.4 mph N/A   Mostly Cloudy
3:55 PM 50.0 °F - 19.4 °F 30% 30.11 in 10.0 mi SW 8.1 mph 16.1 mph N/A   Mostly Cloudy
4:50 PM 46.4 °F 42.4 °F 19.4 °F 34% 30.11 in 10.0 mi SW 8.1 mph - N/A   Mostly Cloudy
4:55 PM 44.6 °F 40.2 °F 19.4 °F 37% 30.11 in 10.0 mi SW 8.1 mph - N/A   Scattered Clouds
5:15 PM 44.6 °F 39.2 °F 19.4 °F 37% 30.11 in 10.0 mi SW 10.4 mph - N/A   Clear
5:35 PM 42.8 °F 37.5 °F 19.4 °F 39% 30.11 in 10.0 mi WSW 9.2 mph - N/A   Clear
5:55 PM 42.8 °F 35.4 °F 19.4 °F 39% 30.11 in 10.0 mi WSW 15.0 mph 20.7 mph N/A   Clear
6:15 PM 39.2 °F 34.2 °F 19.4 °F 45% 30.11 in 10.0 mi SW 6.9 mph - N/A   Scattered Clouds
6:35 PM 37.4 °F 33.8 °F 19.4 °F 48% 30.12 in 10.0 mi WSW 4.6 mph - N/A   Mostly Cloudy
6:55 PM 35.6 °F 31.7 °F 19.4 °F 52% 30.11 in 10.0 mi WSW 4.6 mph - N/A   Mostly Cloudy
7:15 PM 37.4 °F 32.8 °F 17.6 °F 45% 30.12 in 10.0 mi WSW 5.8 mph - N/A   Overcast
7:35 PM 37.4 °F 30.8 °F 17.6 °F 45% 30.13 in 10.0 mi West 9.2 mph - N/A   Scattered Clouds
7:55 PM 39.2 °F 35.9 °F 19.4 °F 45% 30.13 in 10.0 mi West 4.6 mph - N/A   Mostly Cloudy
8:15 PM 33.8 °F 30.8 °F 19.4 °F 56% 30.11 in 10.0 mi East 3.5 mph - N/A   Scattered Clouds
8:35 PM 33.8 °F 29.6 °F 19.4 °F 56% 30.11 in 10.0 mi SW 4.6 mph - N/A   Scattered Clouds
8:55 PM 33.8 °F - 19.4 °F 56% 30.10 in 10.0 mi Calm Calm - N/A   Clear
9:15 PM 32.0 °F - 19.4 °F 60% 30.09 in 10.0 mi Calm Calm - N/A   Clear
9:55 PM 33.8 °F - 19.4 °F 56% 30.07 in 10.0 mi Calm Calm - N/A   Clear
10:15 PM 32.0 °F - 19.4 °F 60% 30.07 in 10.0 mi Calm Calm - N/A   Clear
10:35 PM 30.2 °F 24.3 °F 17.6 °F 60% 30.04 in 10.0 mi SE 5.8 mph - N/A   Clear
10:55 PM 33.8 °F - 14.0 °F 44% 30.03 in 10.0 mi Calm Calm - N/A   Clear
11:15 PM 35.6 °F 31.7 °F 10.4 °F 35% 30.01 in 10.0 mi North 4.6 mph - N/A   Clear
11:35 PM 37.4 °F 27.8 °F 5.0 °F 26% 30.00 in 10.0 mi SW 17.3 mph 23.0 mph N/A   Clear
11:55 PM 41.0 °F 31.6 °F 5.0 °F 23% 29.99 in 10.0 mi WSW 20.7 mph 28.8 mph N/A   Clear